Location: �clusier
(49.9361°N, 2.7869°E)
Time: 08:48:43
(UTC+00:00)

Lacrosse 5 rocket - Pass Details

Date: 16 June 2021
Orbit: 460 x 633 km, 57.0° (Epoch: 02 August)

Event Time Altitude Azimuth Distance (km) Brightness Sun altitude
Rises 20:49:17 0° 185° (S) 2,537 4.3 -6.5°
Reaches altitude 10° 20:52:16 10° 159° (SSE) 1,636 3.1 -6.8°
Maximum altitude 20:54:13 14° 127° (SE) 1,400 2.8 -7.0°
Drops below altitude 10° 20:56:09 10° 94° (E) 1,619 3.3 -7.2°
Sets 20:59:04 0° 69° (ENE) 2,490 4.5 -7.5°
